Flag for Greenland Weather past 2 weeks in Sisimiut, Greenland

Now
61 °F

Passing clouds.


Feels Like: 61 °F
Forecast: 42 / 53 °F
Wind: 9 mph from East

Location: Sdr Stroemfjord

Current Time: Jul 1, 2015 at 11:26:02 AM

Latest Report: Jul 1, 2015 at 10:00 AM


Visibility: 47 mi

Pressure: 30.06 "Hg

Humidity: 29%

Dew point: 29 °F

Location of SisimiutLocation

Historic Weather in Sisimiut — Graph

°F

Sisimiut temperature yesterday

Maximum temperature yesterday: 71 °F (at 2:00 PM)
Minimum temperature yesterday: 47 °F (at 3:00 AM)
Average temperature yesterday: 59 °F

Past Weeks' High & Low Weather Summary

 TemperatureHumidityPressure
High71 °F (Jun 25, 4:00 PM)81% (Jun 17, 3:00 AM)30.13 "Hg (Jun 17, 3:00 AM)
Low37 °F (Jun 17, 3:00 AM)19% (Jun 25, 7:00 PM)29.41 "Hg (Jun 16, 3:00 PM)
Average55 °F42%29.89 "Hg
* Reported Jun 16 10:00 AM — Jul 1 10:00 AM, Sisimiut, Weather by CustomWeather, © 2015

Note: Actual official high and low records may vary slightly from our data, if they occured in-between our weather recording intervals... More about our weather records

Advertising

Sisimiut weather history for previous 24 hours

 ConditionsComfort  
Time TempWeatherWind HumidityBarometerVisibility
10:00 AM
Wed, Jul 1
61 °FPassing clouds.9 mph29%30.06 "Hg47 mi
9:00 AM59 °FSunny.10 mph33%30.07 "Hg25 mi
8:00 AM56 °FPassing clouds.10 mph36%30.08 "Hg25 mi
7:00 AM53 °FPassing clouds.13 mph43%30.09 "Hg28 mi
6:00 AM51 °FSunny.10 mph46%30.10 "Hg28 mi
5:00 AM48 °FPassing clouds.9 mph53%30.10 "Hg28 mi
4:00 AM48 °FPartly sunny.12 mph51%30.10 "Hg47 mi
3:00 AM49 °FPassing clouds.10 mph49%30.10 "Hg31 mi
2:00 AM50 °FSunny.12 mph46%30.09 "Hg31 mi
12:00 AM54 °FSunny.14 mph40%30.08 "Hg28 mi
11:00 PM
Tue, Jun 30
56 °FSunny.13 mph37%30.07 "Hg31 mi
10:00 PM57 °FScattered clouds.13 mph35%30.07 "Hg47 mi
9:00 PM61 °FSunny.15 mph31%30.05 "Hg22 mi
8:00 PM64 °FSunny.15 mph27%30.04 "Hg25 mi
6:00 PM68 °FSunny.16 mph24%30.04 "Hg19 mi
5:00 PM70 °FSunny.16 mph23%30.03 "Hg22 mi
4:00 PM71 °FScattered clouds.16 mph22%30.03 "Hg25 mi
2:00 PM71 °FSunny.14 mph21%30.03 "Hg19 mi
12:00 PM68 °FSunny.13 mph24%30.04 "Hg22 mi
11:00 AM65 °FSunny.13 mph27%30.05 "Hg22 mi
Weather by CustomWeather, © 2015

See weather overviewHow to use our weather pages